Volver al catálogo

COSMOS 708

ActivoMilitarLEO
NORAD 7663·PAYLOAD·🇷🇺 Russia

Lanzado Feb 12, 1975 desde Plesetsk Cosmodrome

Loading…

Próximos Pases (próximas 24 horas)

TLE

ActualizadoSource: Space-Track

Época: Sep 14, 2026, 13:45 UTC

1 07663U 75012A   26257.57331934 -.00000035  00000-0  31454-4 0  9994
2 07663  69.2313 288.0113 0023739  19.4960 147.7168 12.68302520388860

Sigue COSMOS 708 en tiempo real con AllMySat

Download on the App Store